Location: Unnamed
(51.5169°N, 0.1311°W)
Time: 07:36:33
(UTC+01:00)

Vanguard 1 - Pass Details

Date: 12 August 2024
Orbit: 649 x 3825 km, 34.2° (Epoch: 16 September)

Event Time Altitude Azimuth Distance (km) Brightness Sun altitude
Rises 21:50:59 0° 197° (SSW) 3,989 12.9 -11.6°
Reaches altitude 10° 21:54:31 10° 177° (S) 3,445 12.4 -12.0°
Maximum altitude 21:59:59 18° 139° (SE) 3,527 12.2 -12.6°
Drops below altitude 10° 22:07:27 10° 104° (ESE) 4,958 13.1 -13.4°
Sets 22:14:17 0° 89° (E) 6,652 13.9 -14.1°
